Location: Tamazert
(32.6352°N, 5.2072°W)
Time: 05:13:48
(UTC+00:00)

Vanguard 2 - Pass Details

Date: 09 October 2022
Orbit: 553 x 2933 km, 32.9° (Epoch: 04 December)

Event Time Altitude Azimuth Distance (km) Brightness Sun altitude
Rises 14:32:40 0° 278° (W) 4,699 12.0 38.0°
Reaches altitude 10° 14:35:17 10° 278° (W) 3,979 11.8 37.6°
Maximum altitude 14:46:46 86° 191° (S) 2,362 10.7 35.7°
Drops below altitude 10° 15:04:06 10° 105° (ESE) 5,720 11.7 32.8°
Sets 15:08:43 0° 105° (ESE) 6,782 12.0 32.0°
